Teesside, United Kingdom

1:04 PM BST on August 27, 2016 (GMT +0100)
Teesside

Weather History for EGNV - November, 2013

Change the Weather History Date:

Wednesday, November 20, 2013

  Actual Average Record
Temperature  
Mean Temperature 42 °F -  
Max Temperature 46 °F 45 °F 57 °F (2012)
Min Temperature 37 °F 34 °F 21 °F (2004)
Degree Days  
Heating Degree Days 24    
Moisture  
Dew Point 35 °F    
Average Humidity 79    
Maximum Humidity 93    
Minimum Humidity 66    
Precipitation  
Precipitation 0.00 in - - ()
Sea Level Pressure  
Sea Level Pressure 29.41 in    
Wind  
Wind Speed 15 mph ()    
Max Wind Speed 28 mph    
Max Gust Speed 32 mph    
Visibility 5.5 miles    
Events Rain , Thunderstorm    
Averages and records for this station are not official NWS values.
T = Trace of Precipitation, MM = Missing Value Source: Averaged Metar Reports

Daily Weather History Graph

Daily Weather History Graph

Search for Another Location

Airport or City:

Trip Planner

Search our weather history database for the weather conditions in past years. The results will help you decide how hot, cold, wet, or windy it might be!

Date:

Astronomy

Nov. 20, 2013 Rise Set
Actual Time 7:45 AM GMT 3:56 PM GMT
Civil Twilight 7:04 AM GMT 4:38 PM GMT
Nautical Twilight 6:19 AM GMT 5:22 PM GMT
Astronomical Twilight 5:36 AM GMT 6:05 PM GMT
Moon 6:25 PM GMT (11/20) 10:01 AM GMT (11/20)
Length of Visible Light 9h 34m
Length of Day
8h 11m
Waning Gibbous, 92% of the Moon is Illuminated
Nov 20
Waning Gibbous
Nov 25
Last Quarter
Dec 3
New
Dec 9
First Quarter
Dec 17
Full

Hourly Weather History & Observations

Time (GMT) Temp. Windchill Dew Point Humidity Pressure Visibility Wind Dir Wind Speed Gust Speed Precip Events Conditions
5:50 AM 44.6 °F 37.2 °F 39.2 °F 81% 29.44 in 6.2 mi SW 17.3 mph - N/A   Scattered Clouds
6:20 AM 46.4 °F 40.1 °F 39.2 °F 76% 29.42 in 6.2 mi WSW 15.0 mph - N/A   Scattered Clouds
6:50 AM 42.8 °F 33.8 °F 37.4 °F 81% 29.42 in 4.3 mi West 21.9 mph - N/A Rain Rain
7:20 AM 41.0 °F 33.9 °F 35.6 °F 81% 29.42 in 6.2 mi West 12.7 mph - N/A Rain Light Rain
7:50 AM 41.0 °F 33.5 °F 35.6 °F 81% 29.42 in 6.2 mi West 13.8 mph - N/A   Scattered Clouds
8:20 AM 41.0 °F 32.8 °F 33.8 °F 76% 29.42 in 6.2 mi WNW 16.1 mph - N/A   Partly Cloudy
8:50 AM 41.0 °F 32.2 °F 32.0 °F 70% 29.42 in 6.2 mi WNW 18.4 mph - N/A   Partly Cloudy
9:20 AM 41.0 °F 33.5 °F 32.0 °F 70% 29.42 in 6.2 mi West 13.8 mph - N/A   Partly Cloudy
9:50 AM 41.0 °F 33.1 °F 32.0 °F 70% 29.42 in 6.2 mi WNW 15.0 mph - N/A   Partly Cloudy
10:20 AM 42.8 °F 35.1 °F 32.0 °F 66% 29.42 in 6.2 mi WNW 16.1 mph - N/A   Partly Cloudy
10:50 AM 42.8 °F 35.1 °F 32.0 °F 66% 29.42 in 6.2 mi WNW 16.1 mph - N/A   Partly Cloudy
11:20 AM 42.8 °F 35.8 °F 32.0 °F 66% 29.42 in 6.2 mi WNW 13.8 mph - N/A   Partly Cloudy
11:50 AM 42.8 °F 34.3 °F 32.0 °F 66% 29.42 in 6.2 mi WNW 19.6 mph - N/A   Partly Cloudy
12:20 PM 42.8 °F 34.3 °F 32.0 °F 66% 29.39 in 6.2 mi WNW 19.6 mph - N/A   Scattered Clouds
12:50 PM 42.8 °F 34.5 °F 32.0 °F 66% 29.39 in 6.2 mi WNW 18.4 mph - N/A   Scattered Clouds
1:20 PM 42.8 °F 35.1 °F 33.8 °F 70% 29.39 in 6.2 mi NW 16.1 mph - N/A   Scattered Clouds
1:50 PM 44.6 °F 37.2 °F 33.8 °F 66% 29.39 in 6.2 mi NW 17.3 mph - N/A   Scattered Clouds
2:20 PM 42.8 °F 36.2 °F 33.8 °F 70% 29.39 in 6.2 mi NNW 12.7 mph - N/A   Scattered Clouds
2:50 PM 42.8 °F 36.6 °F 33.8 °F 70% 29.39 in 6.2 mi NNW 11.5 mph - N/A   Scattered Clouds
3:20 PM 41.0 °F 32.2 °F 35.6 °F 81% 29.39 in 6.2 mi NNW 18.4 mph - N/A Rain Light Rain Showers
3:50 PM 41.0 °F 33.5 °F 35.6 °F 81% 29.39 in 4.3 mi NW 13.8 mph - N/A   Mostly Cloudy
4:20 PM 39.2 °F 29.6 °F 35.6 °F 87% 29.39 in 3.7 mi NW 19.6 mph - N/A Rain Light Rain Showers
4:50 PM 39.2 °F 29.8 °F 35.6 °F 87% 29.39 in 3.7 mi NW 18.4 mph - N/A Rain Light Rain Showers
5:20 PM 37.4 °F 27.5 °F 35.6 °F 93% 29.42 in 3.7 mi NW 18.4 mph - N/A Rain , Thunderstorm Light Thunderstorms and Rain
5:50 PM 37.4 °F 27.2 °F 35.6 °F 93% 29.42 in 4.3 mi NNW 19.6 mph - N/A Rain Light Rain
6:20 PM 37.4 °F 26.9 °F 35.6 °F 93% 29.42 in 4.3 mi NNW 20.7 mph - N/A Rain Light Rain
6:50 PM 39.2 °F 28.7 °F 35.6 °F 87% 29.42 in 4.3 mi NNW 23.0 mph - N/A Rain Rain
7:20 PM 37.4 °F 28.5 °F 35.6 °F 93% 29.42 in 4.3 mi NNW 15.0 mph - N/A Rain Rain
7:50 PM 39.2 °F 29.6 °F 37.4 °F 93% 29.44 in 4.3 mi NNW 19.6 mph - N/A Rain Rain
8:20 PM 39.2 °F 30.8 °F 37.4 °F 93% 29.44 in 4.3 mi NNW 15.0 mph 27.6 mph N/A Rain Light Rain
8:50 PM 41.0 °F 31.6 °F 39.2 °F 93% 29.44 in 6.2 mi NNW 20.7 mph - N/A   Mostly Cloudy
9:20 PM 42.8 °F 34.0 °F 39.2 °F 87% 29.44 in 5.0 mi NNW 20.7 mph 32.2 mph N/A Rain Rain
9:50 PM 44.6 °F 35.1 °F 41.0 °F 87% 29.44 in 6.2 mi North 27.6 mph - N/A   Mostly Cloudy